Location: Days
(41.3591°N, 106.7339°W)
Time: 19:44:20
(UTC+00:00)

AO-27 - Visible Passes

Search period start: 29 June 2022 00:00
Search period end: 09 July 2022 00:00
Orbit: 785 x 797 km, 98.9° (Epoch: 29 June)

Date Brightness Start Highest point End Pass type
(mag) Time Alt. Az. Time Alt. Az. Time Alt. Az.
29 Jun 9.9 03:11:26 10° SSW 03:15:32 24° W 03:19:41 10° NW visible
02 Jul 10.2 03:23:57 10° SW 03:27:29 19° W 03:31:03 10° NW visible
05 Jul 10.3 03:36:42 10° WSW 03:39:27 14° W 03:42:12 10° WNW visible
08 Jul 10.6 03:50:10 10° WSW 03:51:26 11° W 03:52:42 10° WNW visible
